Location: Glover Place
(34.8009°N, 106.2956°W)
Time: 20:39:14
(UTC+00:00)

Daily predictions for brighter satellites

Satellite Brightness Start Highest point End
(mag) Time Altitude Azimuth Time Altitude Azimuth Time Altitude Azimuth
USA 234 3.3 12:00:13 10° SE 12:06:45 85° SW 12:13:20 10° NW
ALOS 2.5 12:02:04 10° NNE 12:06:46 77° ESE 12:11:25 10° S
SL-16 R/B 3.3 12:02:56 10° NW 12:07:04 21° W 12:11:10 10° SSW
Aureole 3 Rocket 2.7 12:09:37 10° N 12:13:41 79° E 12:16:54 10° S
Lacrosse 5 3.7 12:12:02 10° S 12:16:27 31° ESE 12:20:53 10° ENE
Cosmos 1844 Rocket 4.1 12:11:20 10° S 12:16:35 41° ESE 12:21:52 10° NE
CZ-2C R/B 3.6 12:15:08 10° NNW 12:18:30 21° WNW 12:21:53 10° WSW
